Location: Dumpton Point
(51.3500°N, 1.4433°E)
Time: 03:47:18
(UTC+00:00)

Altair - Pass Details

Date: 08 October 2022
Orbit: 1501 x 1682 km, 47.2° (Epoch: 04 December)

Event Time Altitude Azimuth Distance (km) Brightness Sun altitude
Rises 02:26:24 0° 201° (SSW) 4,710 - -33.2°
Reaches altitude 10° 02:29:56 10° 191° (S) 3,756 - -32.8°
Exits shadow 02:34:42 25° 164° (SSE) 2,812 8.6 -32.2°
Maximum altitude 02:37:40 29° 136° (SE) 2,630 8.7 -31.8°
Drops below altitude 10° 02:45:37 10° 82° (E) 3,885 10.3 -30.8°
Sets 02:49:20 0° 72° (ENE) 4,897 11.2 -30.3°
